Regional Weather Roundup
Issued by NWS State College, PA

Home | Current Version | Previous Version | Text Only | Print | Product List | Glossary On
Versions: 1 2 3 4 5 6 7 8 9 10 11 12 13 14 15 16 17 18 19 20 21 22 23 24 25 26 27 28 29 30 31 32 33 34 35 36 37 38 39 40 41 42 43 44 45 46 47 48 49 50
000
ASUS41 KCTP 252210
RWRCTP

REGIONAL WEATHER ROUNDUP
NATIONAL WEATHER SERVICE STATE COLLEGE PA
600 PM EDT SAT OCT 25 2014

Note: "fair" indicates few or no clouds below 12,000 feet with no
significant weather and/or obstructions to visibility.

* = STATION THAT DOES NOT REPORT PRECIPITATION /E.G. RAIN...SNOW...ETC/
    THUNDER OR FOG.

PAZ002>004-007>009-013>016-020>023-029>032-252300-
WESTERN PENNSYLVANIA

CITY           SKY/WX    TMP DP  RH WIND       PRES   REMARKS
ERIE           MOCLDY    59  52  77 W17G28    29.71R
MEADVILLE      CLEAR     62  50  64 W15G28    29.71S
FRANKLIN*      MOCLDY    64  48  55 W13G18    29.72F
NEW CASTLE       N/A     66  53  63 SW12      29.74F
BEAVER COUNTY  MOCLDY    66  52  59 W13       29.75F
BUTLER*        MOCLDY    64  50  59 SW12G23   29.76F
PITTSBURGH INT MOCLDY    65  51  60 W12G26    29.76F
PITTSBURGH     CLEAR     64  48  56 W16G23    29.76F
INDIANA*       MOCLDY    63  50  63 W14G21    29.78S
LATROBE        PTCLDY    64  52  63 SW12G23   29.76F
WASHINGTON CO* CLEAR     64  50  59 SW16G29   29.80S
$$

PAZ004>006-010>012-017>019-024>028-033>037-041-042-045-046-049>053-252300-
CENTRAL PENNSYLVANIA

CITY           SKY/WX    TMP DP  RH WIND       PRES   REMARKS
BRADFORD       MOCLDY    60  47  61 W10G23    29.67F
DUBOIS         MOCLDY    60  48  64 SW16G23   29.70F
CLEARFIELD     CLOUDY    62  48  60 SW12G23   29.70F
JOHNSTOWN      MOCLDY    58  45  62 W17G30    29.75F
ALTOONA        PTCLDY    63  48  58 W16       29.73F
STATE COLLEGE  MOCLDY    63  48  59 W16       29.68F
WILLIAMSPORT   MOCLDY    66  46  48 W9        29.64F
SELINSGROVE    MOCLDY    68  46  45 MISG      29.67F
FT INDIANTOWN  CLOUDY    67  47  49 SW6       29.68F
CAPITAL CITY   CLEAR     67  46  47 SW5       29.68F
HARRISBURG     MOCLDY    68  45  43 SW10      29.67F
YORK           CLEAR     67  43  41 SW7       29.70F
$$

PAZ038>040-043-044-047-048-054-055-060>062-067>071-252300-
EASTERN PENNSYLVANIA

CITY           SKY/WX    TMP DP  RH WIND       PRES   REMARKS
SCRANTON       CLOUDY    65  43  44 SW9       29.63F
MOUNT POCONO   CLOUDY    59  42  53 W9        29.66F
ALLENTOWN      MOCLDY    64  43  46 SW12      29.66F
QUAKERTOWN*    MOCLDY    64  43  45 SW5       29.68F
READING        CLOUDY    66  44  45 SW9       29.67F
LANCASTER      MOCLDY    66  44  45 SW9       29.68F
COATESVILLE    MOCLDY    64  45  48 CALM      29.71F
POTTSTOWN      MOCLDY    65  43  44 SW6       29.70F
BLUE BELL      CLEAR     66  45  45 SW6       29.68F
DOYLESTOWN     CLEAR     64  42  44 SW7       29.67F
WILLOW GROVE   NOT AVBL
NORTH PHILA    CLEAR     67  41  38 SW14      29.70F
PHILADELPHIA   PTCLDY    66  46  48 SW9       29.70F
$$



USA.gov is the U.S. government's official web portal to all federal, state and local government web resources and services.